Regional Weather Roundup
Issued by NWS Charleston, SC

Current Version | Previous Version | Text Only | Print | Product List | Glossary Off
Versions: 1 2 3 4 5 6 7 8 9 10 11 12 13 14 15 16 17 18 19 20 21 22 23 24 25 26 27 28 29 30 31 32 33 34 35 36 37 38 39 40 41 42 43 44 45 46 47 48 49 50
000 ASUS42 KCHS 031427 RWRCHS REGIONAL WEATHER ROUNDUP NATIONAL WEATHER SERVICE CHARLESTON SC 1000 AM EDT THU SEP 03 2015 NOTE: "FAIR" INDICATES FEW OR NO CLOUDS BELOW 12,000 FEET WITH NO SIGNIFICANT WEATHER AND/OR OBSTRUCTIONS TO VISIBILITY. NOT ALL STATIONS ARE QUALITY CONTROLLED BY THE NATIONAL WEATHER SERVICE. USE DATA WITH CAUTION...ESPECIALLY DEWPOINT OBSERVATIONS. SCZ027-030-031-034>040-042>050-031500- ...SOUTHEAST SOUTH CAROLINA... CITY SKY/WX TMP DP RH WIND PRES REMARKS N CHARLESTON PTSUNNY 82 72 71 NW5 29.98S WATERFRONT PRK N/A 81 74 79 N5 29.95R MOUNT PLEASANT FAIR 82 73 74 W3 29.98S JOHNS ISLAND FAIR 82 75 78 CALM 29.98S PINOPOLIS N/A 82 73 74 W5 29.90R MONCKS CORNER FAIR 82 73 74 CALM 29.98R SUMMERVILLE FAIR 82 75 78 W3 29.99S BEAUFORT MCAS PTSUNNY 81 73 76 N3 29.99R BEAUFORT ARPT FAIR 81 75 83 CALM 29.98S HILTON HEAD IS PTSUNNY 77 75 94 S6 29.99 WALTERBORO FAIR 86 73 66 W5 30.00R HX 93 ALLENDALE FAIR 82 73 74 NW5 29.99S ...SOUTHERN MIDLANDS AND PEE DEE... CITY SKY/WX TMP DP RH WIND PRES REMARKS GEORGETOWN NOT AVBL KINGSTREE NOT AVBL ORANGEBURG MOSUNNY 82 72 71 W5 29.99S BARNWELL FAIR 84 75 74 W5 30.00S HX 92 AIKEN FAIR 82 70 65 SW3 30.04S MANNING FAIR 82 70 65 NW6 29.98S COLUMBIA PTSUNNY 83 72 69 W5 29.98S SUMTER PTSUNNY 81 72 74 W5 29.96S FLORENCE PTSUNNY 82 73 74 SW6 29.96S MYRTLE BEACH SUNNY 81 72 74 CALM 29.98S N MYRTLE BEACH SUNNY 82 74 76 SW6 29.95F $$ GAZ063-065-086>088-099>101-113>116-118-119-134>141-150-031500- ...SOUTHEAST GEORGIA... CITY SKY/WX TMP DP RH WIND PRES REMARKS SAVANNAH ARPT PTSUNNY 80 73 79 NW9 29.99R HUNTER AAF MOSUNNY 78 78 100 N7 29.96R FORT STEWART HVY RAIN 75 73 94 NW6 29.97F FOG STATESBORO PTSUNNY 83 81 96 NW5 30.00S HX 96 SYLVANIA NOT AVBL CLAXTON NOT AVBL ...CSRA...CENTRAL AND FAR SOUTHEAST GEORGIA... CITY SKY/WX TMP DP RH WIND PRES REMARKS THOMSON CLOUDY 80 77 89 MISG 30.05S AUGUSTA-BUSH CLOUDY 81 74 79 CALM 29.99S AUGUSTA-DANIEL CLOUDY 82 73 74 NW6 30.01S SWAINSBORO CLOUDY 79 73 83 CALM 30.01F VIDALIA CLOUDY 79 73 83 N3 30.00F EASTMAN FAIR 80 79 97 NW3 30.02F HAZLEHURST PTSUNNY 78 78 100 N3 29.99F ALMA PTSUNNY 79 75 87 VRB3 30.00S WAYCROSS PTSUNNY 84 79 83 N7 30.00 HX 96 JESUP PTSUNNY 82 77 83 NW7 29.99F HX 91 BAXLEY FAIR 81 77 89 N5 30.00S BRUNSWICK CLOUDY 73 72 94 CALM 29.99F SAINT SIMONS CLOUDY 76 75 97 NW7 29.98R $$ SCZ027-028-034-036>038-045-046-048>050-GAZ119-141-031500- ...LAKE AND SUPPLEMENTAL COASTAL OBSERVATIONS... STATION/POSITION TIME TEMP WIND PRES WAVE SWELL AIR SEA DIR/SP/G HT/PER HT/PER/DIR (UTC) (F) (DEG/KT/KT) (MB) (FT/S) (FT/S/D) UPR LAKE MARION NOT AVBL WINYAH BAY 1345 81 300/ 4 1014.0R LAKE MURRAY 1400 81 260/ 3/ 5 1014.6F ACE BASIN NERRS NOT AVBL FORT PULASKI 1400 79 83 40/ 8/ 9 1015.4R SAPELO ISLAND 1400 77 310/ 10 1015.0S $$ ANZ835-935-AMZ111-154-330-350-352-354-370-450-454-472-031500- ...C-MAN AND BUOY OBSERVATIONS... STATION/POSITION TIME TEMP WIND PRES WAVE SWELL AIR SEA DIR/SP/G HT/PER HT/PER/DIR (UTC) (F) (DEG/KT/KT) (MB) (FT/S) (FT/S/D) BUOY 41004 1350 81 84 210/ 6/ 8 1014.7R 2/ 8 2/ 8 BUOY 41008 1350 78 84 290/ 10/ 12 1014.2R 2/ 4 2/ 70/ 9 FOLLY BEACH CMAN 1400 80 CALM / 2 1015.5R CAPERS NEARSHORE 1308 80 330/ 6/ 8 1014.9R FRIPP NEARSHORE 1300 76 180/ 10/ 12 1014.7 STATION/POSITION TIME TEMP WIND PRES WAVE SWELL AIR SEA DIR/SP/G HT/PER HT/PER/DIR (UTC) (F) (DEG/KT/KT) (MB) (FT/S) (FT/S/D) 5E ST. MARYS GA 1321 85 N/A 2/ 8 FRYING PAN BUOY 1350 83 82 220/ 2/ 2 1014.7R 2/ 8 2/150/ 8 BUOY 41025 1350 80 85 350/ 6/ 8 1013.9R 2/13 2/100/13 CAPE LOOKOUT NC 1400 78 50/ 5/ 6 1013.8R BUOY 41002 1350 83 84 320/ 6/ 8 1014.1S 2/12 2/ 70/12 BUOY 41010 1320 82 86 240/ 10/ 14 1015.6F ST AUGUSTINE FL 1400 83 82 250/ 6/ 7 1016.0S $$

USA.gov is the U.S. government's official web portal to all federal, state and local government web resources and services.